User: anonymous   Login
Location: Unspecified
(0.0000°N, 0.0000°E)
Time: 02:53:37
(UTC+00:00)
Language:

USA 247 - Orbit

View from above orbital plane
View from above orbital plane
View from above satellite
View from above satellite

Ground track
Ground track

The orbit data is extracted from the following two-line orbital elements,

1 39462U 13072A   23087.10968031 0.00000000  00000-0  00000-0 0    08
2 39462 122.9934 332.5593 0003551 135.4918 224.4468 13.41451024    06
Epoch (UTC): 28 March 2023 02:37:56
Eccentricity: 0.0003551
inclination: 122.9934°
perigee height: 1101 km
apogee height: 1106 km
right ascension of ascending node: 332.5593°
argument of perigee: 135.4918°
revolutions per day: 13.41451024
mean anomaly at epoch: 224.4468°
orbit number at epoch: 0

The dashed part of the orbit path shows where the satellite is in the earth's shadow,  

DLR